{"data":{"norad_id":58508,"intl_designator":"2023-191A","name":"STARLINK-31026","alt_names":[],"object_type":"PAYLOAD","status":"ACTIVE","operator":null,"country":"US","launch_date":"2023-12-07","launch_site_code":"AFETR","launch_vehicle":null,"mission":null,"orbit_class":"UNKNOWN","rcs_meters":null,"size_class":null,"mass_kg":null,"dimensions":null,"purposes":["comms"],"wikipedia_slug":null,"has_3d_model":false,"image_url":null,"decayed_at":null,"tle_current":{"epoch":"2026-05-24T23:01:32.618784Z","epoch_age_seconds":78595,"freshness":"FRESH","line1":"1 58508U 23191A   26144.95940531  .00000579  00000+0  30558-4 0  9990","line2":"2 58508  43.0072  39.6985 0001228 245.7334 114.3389 15.27589113137052","mean_motion":15.27589113,"eccentricity":0.0001228,"inclination_deg":43.0072,"raan_deg":39.6985,"arg_perigee_deg":245.7334,"mean_anomaly_deg":114.3389,"bstar":3.0558e-5,"rev_number":13705,"period_min":94.266186355048,"perigee_km":482.17925827323,"apogee_km":483.86435887662,"semimajor_km":6861.1588085749,"source":"CELESTRAK","updated_at":"2026-05-25T13:38:18.654952Z"}}}